Weather History for Custer, SD

Change the Weather History Date:

Thursday, August 8, 2013

  Actual Average Record
Temperature  
Mean Temperature 60 °F 65 °F  
Max Temperature 72 °F 79 °F 96 °F (1975)
Min Temperature 48 °F 52 °F 32 °F (1966)
Degree Days  
Heating Degree Days 5 2  
Month to date heating degree days 25 16  
Since 1 June heating degree days 260 297  
Since 1 July heating degree days 67 77  
Cooling Degree Days 0 2  
Month to date cooling degree days 6 16  
Year to date cooling degree days 80 123  
Since 1 June cooling degree days 78 122  
Growing Degree Days 10 (Base 50)    
Moisture  
Dew Point 52 °F    
Average Humidity 73    
Maximum Humidity 93    
Minimum Humidity 53    
Precipitation  
Precipitation 0.28 in 0.07 in 0.91 in (1929)
Month to date precipitation 1.96 0.53  
Year to date precipitation 13.96 13.30  
Sea Level Pressure  
Sea Level Pressure 30.02 in    
Wind  
Wind Speed 4 mph (East)    
Max Wind Speed 15 mph    
Max Gust Speed 18 mph    
Visibility 10 miles    
Events Rain    
T = Trace of Precipitation, MM = Missing Value Source: NWS Daily Summary

Daily Weather History Graph

Daily Weather History Graph

Search for Another Location

Airport:

Trip Planner

Search our weather history database for the weather conditions in past years. The results will help you decide how hot, cold, wet, or windy it might be!

Date:

Astronomy

Aug. 08, 2013 Rise Set
Actual Time 5:51 AM MDT 8:07 PM MDT
Civil Twilight 5:19 AM MDT 8:39 PM MDT
Nautical Twilight 4:39 AM MDT 9:19 PM MDT
Astronomical Twilight 3:55 AM MDT 10:02 PM MDT
Moon 7:46 AM MDT (8/8) 8:41 PM MDT (8/8)
Length of Visible Light 15h 20m
Length of Day
14h 16m
Waxing Crescent, 3% of the Moon is Illuminated
Aug 8
Waxing Crescent
Aug 14
First Quarter
Aug 20
Full
Aug 28
Last Quarter
Sep 5
New

Hourly Weather History & Observations

Time (MDT) Temp. Dew Point Humidity Pressure Visibility Wind Dir Wind Speed Gust Speed Precip Events Conditions
12:53 AM 53.1 °F 50.0 °F 89% 29.96 in 10.0 mi South 3.5 mph - 0.00 in   Mostly Cloudy
1:53 AM 52.0 °F 48.9 °F 89% 29.98 in 10.0 mi SSW 4.6 mph - N/A   Clear
2:53 AM 51.1 °F 48.0 °F 89% 29.99 in 10.0 mi Calm Calm - N/A   Clear
3:53 AM 50.0 °F 46.0 °F 86% 29.98 in 10.0 mi West 5.8 mph - N/A   Clear
4:53 AM 48.9 °F 45.0 °F 86% 29.97 in 10.0 mi WNW 3.5 mph - N/A   Clear
5:53 AM 52.0 °F 44.1 °F 74% 29.99 in 10.0 mi Calm Calm - N/A   Clear
6:53 AM 55.9 °F 46.0 °F 69% 30.00 in 10.0 mi NW 3.5 mph - N/A   Clear
7:53 AM 60.1 °F 50.0 °F 69% 30.01 in 10.0 mi East 4.6 mph - N/A   Clear
8:53 AM 62.1 °F 48.0 °F 60% 30.04 in 10.0 mi East 5.8 mph - N/A   Clear
9:53 AM 64.9 °F 48.9 °F 56% 30.05 in 10.0 mi Calm Calm - N/A   Clear
10:53 AM 66.9 °F 50.0 °F 54% 30.04 in 10.0 mi Calm Calm - N/A   Clear
11:53 AM 69.1 °F 51.1 °F 53% 30.01 in 10.0 mi Variable 3.5 mph - N/A   Partly Cloudy
12:53 PM 71.1 °F 53.1 °F 53% 30.01 in 10.0 mi Variable 3.5 mph - N/A   Mostly Cloudy
1:53 PM 66.0 °F 55.0 °F 68% 30.03 in 10.0 mi ESE 10.4 mph - N/A   Mostly Cloudy
2:53 PM 61.0 °F 57.9 °F 90% 30.06 in 7.0 mi ESE 5.8 mph - 0.17 in Rain Rain
3:53 PM 64.0 °F 57.9 °F 80% 30.06 in 10.0 mi ENE 5.8 mph - 0.11 in Rain Light Rain
4:53 PM 66.9 °F 57.0 °F 70% 30.04 in 10.0 mi East 6.9 mph - 0.00 in   Scattered Clouds
5:53 PM 64.0 °F 55.0 °F 73% 30.05 in 10.0 mi East 4.6 mph - N/A   Clear
6:53 PM 63.0 °F 55.0 °F 75% 30.05 in 10.0 mi East 6.9 mph - N/A   Partly Cloudy
7:53 PM 61.0 °F 55.0 °F 81% 30.04 in 10.0 mi East 4.6 mph - N/A   Clear
8:53 PM 60.1 °F 55.0 °F 83% 30.05 in 10.0 mi ENE 3.5 mph - N/A   Mostly Cloudy
9:53 PM 59.0 °F 55.0 °F 87% 30.06 in 10.0 mi East 4.6 mph - N/A   Partly Cloudy
10:53 PM 59.0 °F 54.0 °F 83% 30.06 in 10.0 mi East 4.6 mph - N/A   Partly Cloudy
11:53 PM 55.9 °F 54.0 °F 93% 30.06 in 10.0 mi Calm Calm - N/A   Partly Cloudy